Weather History for Lanai City, HI

Change the Weather History Date:

Tuesday, October 29, 2013

  Actual Average Record
Temperature  
Mean Temperature 73 °F -  
Max Temperature 81 °F 81 °F 85 °F (1951)
Min Temperature 65 °F 64 °F 58 °F (1949)
Cooling Degree Days 8    
Growing Degree Days 23 (Base 50)    
Moisture  
Dew Point 66 °F    
Average Humidity 77    
Maximum Humidity 100    
Minimum Humidity 53    
Precipitation  
Precipitation 0.01 in - - ()
Sea Level Pressure  
Sea Level Pressure 30.03 in    
Wind  
Wind Speed 7 mph (NE)    
Max Wind Speed 17 mph    
Max Gust Speed 26 mph    
Visibility 10 miles    
Events Rain    
Averages and records for this station are not official NWS values.
T = Trace of Precipitation, MM = Missing Value Source: NWS Daily Summary

Daily Weather History Graph

Daily Weather History Graph

Search for Another Location

Airport:

Trip Planner

Search our weather history database for the weather conditions in past years. The results will help you decide how hot, cold, wet, or windy it might be!

Date:

Astronomy

Oct. 29, 2013 Rise Set
Actual Time 6:28 AM HST 5:53 PM HST
Civil Twilight 6:06 AM HST 6:16 PM HST
Nautical Twilight 5:40 AM HST 6:42 PM HST
Astronomical Twilight 5:14 AM HST 7:08 PM HST
Moon 2:05 AM HST (10/29) 2:41 PM HST (10/29)
Length of Visible Light 12h 10m
Length of Day
11h 24m
Waning Crescent, 23% of the Moon is Illuminated
Oct 29
Waning Crescent
Nov 3
New
Nov 9
First Quarter
Nov 17
Full
Nov 25
Last Quarter

Hourly Weather History & Observations

Time (HST) Temp. Heat Index Dew Point Humidity Pressure Visibility Wind Dir Wind Speed Gust Speed Precip Events Conditions
12:03 AM 69.8 °F - 64.4 °F 83% 30.10 in 10.0 mi NE 4.6 mph - N/A   Partly Cloudy
12:56 AM 68.9 °F - 65.8 °F 90% 30.03 in 10.0 mi ENE 4.6 mph - N/A   Clear
1:12 AM 69.8 °F - 66.2 °F 88% 30.08 in 10.0 mi ENE 3.5 mph - N/A   Mostly Cloudy
1:56 AM 70.9 °F - 65.8 °F 84% 30.01 in 10.0 mi East 3.5 mph - N/A   Overcast
2:28 AM 69.8 °F - 66.2 °F 88% 30.06 in 10.0 mi Calm Calm - N/A   Scattered Clouds
2:56 AM 68.9 °F - 65.8 °F 90% 29.99 in 10.0 mi East 4.6 mph - N/A   Clear
3:56 AM 66.9 °F - 65.8 °F 96% 29.99 in 10.0 mi East 4.6 mph - N/A   Clear
4:56 AM 66.9 °F - 65.8 °F 96% 30.00 in 10.0 mi NNE 4.6 mph - N/A   Clear
5:56 AM 65.8 °F - 65.8 °F 100% 30.01 in 10.0 mi NE 3.5 mph - N/A   Clear
6:56 AM 66.9 °F - 66.9 °F 100% 30.04 in 10.0 mi Calm Calm - N/A   Clear
7:56 AM 73.9 °F - 66.9 °F 79% 30.04 in 10.0 mi NE 8.1 mph - N/A   Clear
8:56 AM 77.9 °F - 63.9 °F 62% 30.04 in 10.0 mi NNE 8.1 mph - N/A   Clear
9:56 AM 79.0 °F - 66.9 °F 66% 30.05 in 10.0 mi SSE 9.2 mph - N/A   Partly Cloudy
10:56 AM 81.9 °F 83.1 °F 63.0 °F 53% 30.03 in 10.0 mi South 5.8 mph - N/A   Clear
11:44 AM 78.8 °F - 64.4 °F 61% 30.08 in 10.0 mi Calm Calm - N/A   Overcast
11:56 AM 79.9 °F - 65.8 °F 62% 30.01 in 10.0 mi WNW 8.1 mph - N/A   Overcast
12:12 PM 80.6 °F 82.7 °F 66.2 °F 61% 30.07 in 4.0 mi WNW 5.8 mph - N/A   Haze
12:56 PM 79.9 °F - 65.8 °F 62% 29.99 in 10.0 mi Variable 4.6 mph - N/A   Overcast
1:38 PM 80.6 °F 82.3 °F 64.4 °F 58% 30.04 in 10.0 mi NNE 10.4 mph - N/A   Mostly Cloudy
1:56 PM 80.6 °F 82.3 °F 64.4 °F 58% 30.04 in 10.0 mi NE 15.0 mph - N/A   Mostly Cloudy
2:56 PM 81.9 °F 83.5 °F 64.9 °F 56% 29.96 in 10.0 mi NE 16.1 mph - N/A   Clear
3:56 PM 77.0 °F - 64.9 °F 66% 29.98 in 10.0 mi NE 17.3 mph - N/A   Partly Cloudy
4:16 PM 77.0 °F - 66.2 °F 69% 30.04 in 10.0 mi NE 12.7 mph - N/A   Mostly Cloudy
4:56 PM 75.9 °F - 65.8 °F 71% 30.00 in 10.0 mi ENE 17.3 mph - 0.00 in Rain Light Rain
5:56 PM 72.9 °F - 68.0 °F 85% 30.02 in 10.0 mi ENE 6.9 mph - 0.01 in   Mostly Cloudy
6:56 PM 70.9 °F - 66.9 °F 87% 30.04 in 10.0 mi NE 12.7 mph - N/A   Clear
7:56 PM 70.9 °F - 66.9 °F 87% 30.05 in 10.0 mi NE 15.0 mph - N/A   Clear
8:56 PM 70.9 °F - 65.8 °F 84% 30.06 in 10.0 mi NE 15.0 mph - N/A   Clear
9:56 PM 70.9 °F - 64.9 °F 81% 30.06 in 10.0 mi NE 13.8 mph 26.5 mph N/A   Clear
10:56 PM 70.0 °F - 64.9 °F 84% 30.06 in 10.0 mi ENE 11.5 mph - N/A   Clear
11:56 PM 70.0 °F - 64.9 °F 84% 30.05 in 10.0 mi NE 15.0 mph - N/A   Clear